Location: ??????
(42.0089°N, 44.3281°E)
Time: 17:09:12
(UTC+00:00)

NOSS 8 (H) - Pass Details

Date: 01 June 2022
Orbit: 366 x 1779 km, 63.3° (Epoch: 02 July)

Event Time Altitude Azimuth Distance (km) Brightness Sun altitude
Rises 17:31:35 0° 333° (NNW) 2,468 9.6 -9.7°
Reaches altitude 10° 17:33:34 10° 344° (NNW) 1,711 8.3 -10.0°
Maximum altitude 17:37:03 34° 51° (NE) 1,002 6.1 -10.5°
Enters shadow 17:41:01 13° 113° (ESE) 2,063 7.1 -11.0°
